Altus AFB, OK

4:27 PM CDT on October 14, 2019 (GMT -0500)
Altus Air Force Base

Weather History for KLTS - August, 2019

Change the Weather History Date:

Thursday, August 8, 2019

  Actual Average Record
Temperature  
Mean Temperature 88 °F -  
Max Temperature 100 °F 94 °F 109 °F (2011)
Min Temperature 78 °F 70 °F 66 °F (1997)
Cooling Degree Days 24    
Growing Degree Days 38 (Base 50)    
Moisture  
Dew Point 66 °F    
Average Humidity 54    
Maximum Humidity 78    
Minimum Humidity 31    
Precipitation  
Precipitation 0.06 in - - ()
Sea Level Pressure  
Sea Level Pressure 29.82 in    
Wind  
Wind Speed 7 mph (SE)    
Max Wind Speed 12 mph    
Max Gust Speed -    
Visibility 10 miles    
Events Rain    
Averages and records for this station are not official NWS values.
T = Trace of Precipitation, MM = Missing Value Source: NWS Daily Summary

Daily Weather History Graph

Daily Weather History Graph

Search for Another Location

Airport or City:

Astronomy

Aug. 08, 2019 Rise Set
Actual Time 6:52 AM CDT 8:32 PM CDT
Civil Twilight 6:25 AM CDT 8:59 PM CDT
Nautical Twilight 5:52 AM CDT 9:32 PM CDT
Astronomical Twilight 5:17 AM CDT 10:06 PM CDT
Moon 3:10 PM CDT (8/8) 1:13 AM CDT (8/8)
Length of Visible Light 14h 34m
Length of Day
13h 40m
First Quarter, 60% of the Moon is Illuminated
Aug 8
First Quarter
Aug 15
Full
Aug 23
Last Quarter
Aug 30
New
Sep 5
First Quarter

Hourly Weather History & Observations

Time (CDT) Temp. Heat Index Dew Point Humidity Pressure Visibility Wind Dir Wind Speed Gust Speed Precip Events Conditions
12:56 AM 84.6 °F 86.6 °F 65.5 °F 53% 29.79 in 10.0 mi South 10.4 mph - N/A   Clear
1:56 AM 85.1 °F 86.9 °F 64.9 °F 51% 29.79 in 10.0 mi South 9.2 mph - N/A   Partly Cloudy
2:56 AM 81.3 °F 83.5 °F 66.0 °F 60% 29.79 in 10.0 mi South 8.1 mph - N/A   Scattered Clouds
3:56 AM 80.1 °F 82.1 °F 65.8 °F 62% 29.77 in 10.0 mi South 4.6 mph - N/A   Clear
4:56 AM 79.0 °F - 66.2 °F 65% 29.78 in 10.0 mi SE 3.5 mph - N/A   Mostly Cloudy
5:56 AM 79.0 °F - 66.6 °F 66% 29.81 in 10.0 mi SE 5.8 mph - N/A   Mostly Cloudy
6:56 AM 79.2 °F - 66.4 °F 65% 29.82 in 10.0 mi SE 3.5 mph - N/A   Mostly Cloudy
7:56 AM 79.9 °F - 65.7 °F 62% 29.86 in 10.0 mi NE 10.4 mph - N/A   Mostly Cloudy
8:04 AM 80.6 °F 82.7 °F 66.2 °F 61% 29.86 in 10.0 mi NE 8.1 mph - N/A   Light Drizzle
8:56 AM 80.8 °F 83.1 °F 66.6 °F 62% 29.86 in 10.0 mi SE 3.5 mph - 0.00 in   Overcast
9:56 AM 81.5 °F 84.6 °F 68.9 °F 65% 29.89 in 10.0 mi ENE 10.4 mph - 0.01 in Rain Rain
10:10 AM 78.8 °F - 69.8 °F 74% 29.89 in 6.0 mi ENE 5.8 mph - N/A Rain Light Rain
10:16 AM 78.8 °F - 71.6 °F 78% 29.89 in 10.0 mi ENE 4.6 mph - N/A   Mostly Cloudy
10:56 AM 80.4 °F 84.2 °F 71.6 °F 74% 29.88 in 10.0 mi NNE 9.2 mph - 0.05 in   Mostly Cloudy
11:56 AM 86.7 °F 90.6 °F 68.5 °F 55% 29.88 in 10.0 mi SSE 6.9 mph - N/A   Mostly Cloudy
1:56 PM 93.9 °F 96.1 °F 65.1 °F 38% 29.86 in 10.0 mi East 6.9 mph - N/A   Mostly Cloudy
2:56 PM 94.1 °F 95.5 °F 63.7 °F 36% 29.84 in 10.0 mi SE 3.5 mph - N/A   Mostly Cloudy
3:56 PM 95.9 °F 97.5 °F 63.0 °F 34% 29.82 in 10.0 mi Calm Calm - N/A   Partly Cloudy
4:56 PM 99.1 °F 101.4 °F 63.1 °F 31% 29.78 in 10.0 mi SE 5.8 mph - N/A   Mostly Cloudy
5:56 PM 99.5 °F 102.6 °F 64.4 °F 32% 29.76 in 10.0 mi South 8.1 mph - N/A   Mostly Cloudy
6:56 PM 97.0 °F 98.8 °F 63.9 °F 33% 29.78 in 10.0 mi SSE 4.6 mph - N/A   Mostly Cloudy
7:56 PM 94.6 °F 97.8 °F 65.8 °F 39% 29.77 in 10.0 mi ESE 4.6 mph - N/A   Mostly Cloudy
8:56 PM 88.0 °F 91.0 °F 67.5 °F 50% 29.76 in 10.0 mi East 8.1 mph - N/A   Mostly Cloudy
9:56 PM 88.0 °F 91.0 °F 67.5 °F 50% 29.79 in 10.0 mi SSE 6.9 mph - N/A   Mostly Cloudy
10:56 PM 86.4 °F 88.4 °F 65.5 °F 50% 29.83 in 10.0 mi SSE 10.4 mph - N/A   Mostly Cloudy
11:56 PM 84.9 °F 87.1 °F 65.8 °F 53% 29.82 in 10.0 mi SSE 11.5 mph - N/A   Mostly Cloudy